Location: Maccacari
(45.1333°N, 11.1333°E)
Time: 01:22:04
(UTC+00:00)

A-11 Canister half - Pass Details

Date: 29 January 2021
Orbit: 1525 x 1684 km, 47.3° (Epoch: 07 March)

Event Time Altitude Azimuth Distance (km) Brightness Sun altitude
Rises 12:38:05 0° 233° (SW) 4,664 12.4 25.1°
Reaches altitude 10° 12:41:07 10° 231° (SW) 3,684 12.1 25.0°
Maximum altitude 12:50:17 68° 151° (SSE) 1,634 9.8 24.4°
Drops below altitude 10° 12:59:39 10° 71° (ENE) 3,763 10.7 23.8°
Sets 13:02:47 0° 69° (ENE) 4,769 11.2 23.5°
